PROFILE

 METAR AND TAF INFORMATION
ADDS - METARS form results

(0141 UTC 20 February 2020)
http://aviationweather.gov/metar/data/
 
MHTG 200100Z 09006KT 9999 FEW030 23/14 Q1019 A3009 NOSIG
TAF MHTG 192230Z 2000/2024 01007KT 9999 FEW030 TX29/2021Z TN14/2012Z BECMG 2006/2008 FEW008 SCT026 BECMG 2014/2016 03010G20KT FEW032 

 AIRPORT MAP

 RUNWAY INFORMATION
Runway 02 Runway length 6112 ft Runway width 148 ft
Runway elevation 3337 ft Runway displaced threshold 670 ft Runway heading 19
Runway 20 Runway length 6112 ft Runway width 148 ft
Runway elevation 3268 ft Runway displaced threshold 0 ft Runway heading 199

 AIRPORT FREQUENCIES
Type APP Name TONCONTIN Frequency 119.1 MHZ
Type ATIS Name ATIS Frequency 112.3 MHZ
Type GND Name GND Frequency 121.9 MHZ
Type RDO Name TEGUCIGALP Frequency 126.7 MHZ
Type TWR Name TWR Frequency 118.7 MHZ

 AIRPORT NEAR NAVIGATION AIDS
Type NDB Name Picacho Frequency 334 KHZ
Type VOR-DME Name Toncontin Frequency 112300 KHZ
Type NDB Name Toncontin Frequency 405 KHZ